Weather History for KHLR - February, 2014

Change the Weather History Date:

Sunday, February 2, 2014

  Actual Average Record
Temperature  
Mean Temperature 40 °F -  
Max Temperature 48 °F 57 °F 75 °F (2008)
Min Temperature 33 °F 41 °F 17 °F (2011)
Degree Days  
Heating Degree Days 24    
Moisture  
Dew Point 30 °F    
Average Humidity 75    
Maximum Humidity 87    
Minimum Humidity 61    
Precipitation  
Precipitation 0.00 in - - ()
Sea Level Pressure  
Sea Level Pressure 30.19 in    
Wind  
Wind Speed 14 mph (NNW)    
Max Wind Speed 20 mph    
Max Gust Speed 29 mph    
Visibility 10 miles    
Events Rain    
Averages and records for this station are not official NWS values.
T = Trace of Precipitation, MM = Missing Value Source: NWS Daily Summary

Daily Weather History Graph

Daily Weather History Graph

Search for Another Location

Airport or City:

Trip Planner

Search our weather history database for the weather conditions in past years. The results will help you decide how hot, cold, wet, or windy it might be!

Date:

Astronomy

Feb. 02, 2014 Rise Set
Actual Time 7:22 AM CST 6:07 PM CST
Civil Twilight 6:57 AM CST 6:32 PM CST
Nautical Twilight 6:28 AM CST 7:01 PM CST
Astronomical Twilight 5:59 AM CST 7:30 PM CST
Moon 9:05 AM CST (2/2) 9:34 PM CST (2/2)
Length of Visible Light 11h 35m
Length of Day
10h 44m
Waxing Crescent, 11% of the Moon is Illuminated
Feb 2
Waxing Crescent
Feb 6
First Quarter
Feb 14
Full
Feb 22
Last Quarter
Mar 1
New

Hourly Weather History & Observations

Time (CST) Temp. Windchill Dew Point Humidity Pressure Visibility Wind Dir Wind Speed Gust Speed Precip Events Conditions
12:56 AM 48.0 °F - 36.0 °F 63% 30.04 in 10.0 mi North 6.9 mph - 0.00 in   Overcast
1:56 AM 46.9 °F - 36.0 °F 66% 30.04 in 10.0 mi North 15.0 mph 21.9 mph N/A   Overcast
2:56 AM 46.9 °F - 34.0 °F 61% 30.04 in 10.0 mi North 15.0 mph 20.7 mph N/A   Overcast
3:56 AM 45.0 °F 37.6 °F 34.0 °F 65% 30.05 in 10.0 mi North 17.3 mph 25.3 mph 0.00 in   Overcast
4:56 AM 41.0 °F 33.1 °F 32.0 °F 70% 30.09 in 10.0 mi NNW 15.0 mph 23.0 mph 0.00 in   Overcast
5:56 AM 39.0 °F 29.3 °F 32.0 °F 76% 30.10 in 10.0 mi NNW 19.6 mph 26.5 mph 0.00 in Rain Light Rain
6:56 AM 37.0 °F 27.4 °F 30.0 °F 76% 30.14 in 10.0 mi NW 17.3 mph 24.2 mph 0.00 in   Overcast
7:56 AM 37.0 °F 27.0 °F 30.0 °F 76% 30.16 in 10.0 mi NNW 18.4 mph 25.3 mph N/A   Overcast
8:11 AM 37.4 °F 27.8 °F 30.2 °F 75% 30.05 in 10.0 mi NNW 17.3 mph 25.3 mph N/A   Overcast
8:56 AM 37.0 °F 27.7 °F 30.0 °F 76% 30.19 in 10.0 mi NNW 16.1 mph - N/A   Overcast
9:56 AM 37.0 °F 27.0 °F 30.0 °F 76% 30.22 in 10.0 mi NW 18.4 mph 25.3 mph 0.00 in Rain Light Rain
10:56 AM 37.0 °F 27.4 °F 30.0 °F 76% 30.21 in 10.0 mi NNW 17.3 mph 27.6 mph 0.00 in   Overcast
11:11 AM 37.4 °F 28.9 °F 30.2 °F 75% 30.11 in 10.0 mi North 13.8 mph 28.8 mph N/A   Overcast
11:56 AM 37.9 °F 30.0 °F 30.0 °F 73% 30.22 in 10.0 mi NNW 12.7 mph 20.7 mph N/A   Overcast
12:56 PM 39.0 °F 31.4 °F 30.9 °F 73% 30.23 in 10.0 mi NW 12.7 mph - N/A   Overcast
1:04 PM 37.4 °F 28.2 °F 32.0 °F 81% 30.11 in 8.0 mi NW 16.1 mph 21.9 mph 0.00 in Rain Light Rain
1:27 PM 37.4 °F 30.3 °F 33.8 °F 87% 30.09 in 6.0 mi NNW 10.4 mph 19.6 mph 0.00 in Rain Light Rain
1:56 PM 37.9 °F 29.6 °F 33.1 °F 83% 30.19 in 10.0 mi NNW 13.8 mph - 0.00 in   Overcast
2:56 PM 37.9 °F 28.9 °F 32.0 °F 79% 30.19 in 10.0 mi NNW 16.1 mph 23.0 mph 0.00 in   Overcast
3:56 PM 39.0 °F 30.3 °F 32.0 °F 76% 30.22 in 10.0 mi NNW 16.1 mph 21.9 mph N/A   Overcast
4:56 PM 37.9 °F 28.9 °F 30.9 °F 76% 30.23 in 10.0 mi NNW 16.1 mph 25.3 mph N/A   Overcast
5:56 PM 35.1 °F 25.9 °F 27.0 °F 72% 30.29 in 10.0 mi NW 13.8 mph 26.5 mph N/A   Overcast
6:56 PM 33.1 °F 22.6 °F 26.1 °F 75% 30.31 in 10.0 mi NNW 16.1 mph 25.3 mph N/A   Overcast
7:40 PM 33.8 °F 23.2 °F 26.6 °F 75% 30.21 in 9.0 mi NW 17.3 mph 23.0 mph N/A   Overcast
7:56 PM 33.1 °F 22.6 °F 27.0 °F 78% 30.33 in 10.0 mi NW 16.1 mph 23.0 mph N/A   Overcast
8:08 PM 33.8 °F 23.5 °F 26.6 °F 75% 30.20 in 10.0 mi NNW 16.1 mph 21.9 mph N/A   Overcast
8:56 PM 33.1 °F 23.4 °F 26.1 °F 75% 30.34 in 10.0 mi NW 13.8 mph - N/A   Overcast
9:56 PM 33.1 °F 25.5 °F 26.1 °F 75% 30.34 in 10.0 mi NNW 9.2 mph - N/A   Overcast
10:56 PM 33.1 °F 24.9 °F 27.0 °F 78% 30.36 in 10.0 mi NNW 10.4 mph - N/A   Overcast
11:35 PM 33.8 °F 24.8 °F 26.6 °F 75% 30.24 in 10.0 mi NW 12.7 mph - N/A   Overcast
11:56 PM 33.1 °F 23.9 °F 27.0 °F 78% 30.35 in 10.0 mi NNW 12.7 mph - N/A   Overcast